EW0105 Weather Reports


time (UTC)temp
F
wind
direction
speed
knots
gust
knots
rain 1hr
in
rain 24hr
in
rain mn
in
humidity
%
barometer
mb
20260504050022 59 360 0.0 0.0 0.00 0.00 0.00 56 1009.2
20260504044524 59 360 0.0 0.0 0.00 0.00 0.00 57 1009.6
20260504043010 59 360 0.0 0.0 0.00 0.00 0.00 57 1009.7
20260504041512 59 360 0.0 0.0 0.00 0.00 0.00 57 1009.4
20260504040012 59 360 0.0 0.0 0.00 0.00 0.00 56 1009.5
20260504034507 60 360 0.0 0.0 0.00 0.00 0.00 56 1009.8
20260504033011 60 360 0.0 0.0 0.00 0.00 0.00 56 1010.3
20260504031506 60 360 0.0 0.0 0.00 0.00 0.00 57 1010.1
20260504030008 60 360 0.0 0.0 0.00 0.00 0.00 56 1010.4
20260504024505 60 360 0.0 0.0 0.00 0.00 0.00 57 1010.2
20260504023048 60 360 0.0 0.0 0.00 0.00 0.00 57 1010.3
20260504021549 60 360 0.0 0.0 0.00 0.00 0.00 56 1010.3
20260504020031 60 360 0.0 0.0 0.00 0.00 0.00 56 1010.2
20260504014537 61 360 0.0 0.0 0.00 0.00 0.00 56 1010.1
20260504013017 61 360 0.0 0.0 0.00 0.00 0.00 54 1010.1
20260504011519 62 360 0.0 0.0 0.00 0.00 0.00 53 1009.8
20260504010101 62 360 0.0 0.0 0.00 0.00 0.00 52 1009.8
20260504004606 62 360 0.0 0.0 0.00 0.00 0.00 53 1009.6
20260504003038 63 360 0.0 0.0 0.00 0.00 0.00 52 1009.7
20260504001539 63 360 0.0 0.0 0.00 0.00 0.00 52 1009.7
20260504000021 64 360 0.0 0.0 0.00 0.00 0.00 51 1010.4
20260503234519 64 360 0.0 0.0 0.00 0.00 0.00 51 1010.6
20260503233018 64 360 0.0 0.0 0.00 0.00 0.00 51 1010.9
20260503231523 65 360 0.0 0.0 0.00 0.00 0.00 49 1011.0
20260503230017 65 130 0.0 0.0 0.00 0.00 0.00 50 1011.1
20260503224518 65 360 0.0 0.0 0.00 0.00 0.00 49 1011.2
20260503223018 65 122 0.0 0.0 0.00 0.00 0.00 49 1011.5
20260503221514 65 119 0.0 0.0 0.00 0.00 0.00 50 1011.2
20260503220109 64 360 0.0 0.0 0.00 0.00 0.00 50 1011.0
20260503214553 64 132 0.0 0.0 0.00 0.00 0.00 48 1010.7
20260503213035 64 360 0.0 0.0 0.00 0.00 0.00 50 1010.9
20260503211531 64 142 0.0 0.0 0.00 0.00 0.00 49 1011.7
20260503210011 63 360 0.0 0.0 0.00 0.00 0.00 50 1012.0
20260503204517 63 360 0.0 0.0 0.00 0.00 0.00 49 1012.1
20260503203055 62 360 0.0 0.0 0.00 0.00 0.00 51 1012.4
20260503201548 62 360 0.0 0.0 0.00 0.00 0.00 51 1012.7
20260503200034 62 360 0.0 0.0 0.00 0.00 0.00 51 1013.2
20260503194533 61 360 0.0 0.0 0.00 0.00 0.00 51 1013.7
20260503193028 61 105 0.0 0.0 0.00 0.00 0.00 50 1014.4
20260503191535 61 360 0.0 0.0 0.00 0.00 0.00 51 1014.7
20260503190025 61 121 0.0 0.0 0.00 0.00 0.00 50 1014.6
20260503184523 61 360 0.0 0.0 0.00 0.00 0.00 52 1014.9
20260503183020 61 360 0.0 0.0 0.00 0.00 0.00 50 1015.5
20260503181518 61 360 0.0 0.0 0.00 0.00 0.00 50 1015.6
20260503180116 61 360 0.0 0.0 0.00 0.00 0.00 52 1015.7
20260503174556 61 360 0.0 0.0 0.00 0.00 0.00 51 1016.0
20260503173046 60 360 0.0 0.0 0.00 0.00 0.00 50 1016.6
20260503171531 59 360 0.0 0.0 0.00 0.00 0.00 53 1017.2
20260503160110 57 360 0.0 0.0 0.00 0.00 0.00 52 1018.3
20260503140115 52 360 0.0 0.0 0.00 0.00 0.00 46 1019.2
20260503081532 44 360 0.0 0.0 0.00 0.00 0.00 55 1019.0
20260503071602 44 360 0.0 0.0 0.00 0.00 0.00 52 1018.9